GSAT-29 (43698 NORAD) Tracking and Keplerian Element Data

This shows tracking and keplerian element data for the satellite.

Feedback or suggestion? Click here.




ElementValue
Catalog43698
NameGSAT-29
Epoch Orbit66
Epoch Day16.52580443
Epoch Year2019
RAAN271.6223
Inclination0.0722
Eccentricity0.0003309
Argument of Perigee3.5403
Mean Anonmoly84.793
Mean Motion1.00272818
Decay Rate9.6E-07
L11 43698U 18089A 19016.52580443 .00000096 00000-0 00000+0 0 9998
L22 43698 0.0722 271.6223 0003309 3.5403 84.7930 1.00272818 668

Live tracking and technical data element details for GSAT-29 (NORAD 43698). GSAT-29 can be tracked NOW for your location showing map with azimuth and elevation plus other details from your city location.

Track the satellite on the map from your city or location and see movement details for azimuth, elevation, latitude, longitude, range, height, and movement on the map or in text.







IsCatalogInMostPopularTable: catalog: 43698, numindb: 44
Update: records affected: 1



GetName: 43698 GSAT-29

Hit Count: updated at: Fri, 18 Jan 2019 22:29:01 GMT